| time (UTC) | temp F | wind direction | speed MPH | gust MPH | rain 1hr in | rain 24hr in | rain mn in | humidity % | barometer mb |
| 20260906111457 | 67 | 38 | 0.0 | 1.0 | 0.00 | 0.00 | 0.00 | 94 | 1018.7 |
| 20260906110957 | 67 | 33 | 0.0 | 1.0 | 0.00 | 0.00 | 0.00 | 94 | 1018.6 |
| 20260906110459 | 67 | 33 | 0.0 | 1.0 | 0.00 | 0.00 | 0.00 | 94 | 1018.7 |
| 20260906110001 | 67 | 30 | 0.0 | 0.0 | 0.00 | 0.00 | 0.00 | 94 | 1018.6 |
| 20260906105458 | 67 | 31 | 0.0 | 0.0 | 0.00 | 0.00 | 0.00 | 94 | 1018.5 |
| 20260906104457 | 67 | 31 | 0.0 | 0.0 | 0.00 | 0.00 | 0.00 | 94 | 1018.7 |
| 20260906103958 | 67 | 30 | 0.0 | 0.0 | 0.00 | 0.00 | 0.00 | 94 | 1018.6 |
| 20260906103458 | 67 | 30 | 0.0 | 0.0 | 0.00 | 0.00 | 0.00 | 94 | 1018.4 |
| 20260906102958 | 67 | 30 | 0.0 | 1.0 | 0.00 | 0.00 | 0.00 | 94 | 1018.5 |
| 20260906102459 | 67 | 31 | 0.0 | 1.0 | 0.00 | 0.00 | 0.00 | 94 | 1018.5 |
| 20260906101958 | 67 | 41 | 0.0 | 0.0 | 0.00 | 0.00 | 0.00 | 94 | 1018.3 |
| 20260906101458 | 67 | 41 | 0.0 | 0.0 | 0.00 | 0.00 | 0.00 | 94 | 1018.2 |
| 20260906100958 | 67 | 41 | 0.0 | 0.0 | 0.00 | 0.00 | 0.00 | 94 | 1018.2 |
| 20260906100458 | 66 | 41 | 0.0 | 0.0 | 0.00 | 0.00 | 0.00 | 94 | 1018.2 |
| 20260906100003 | 66 | 41 | 0.0 | 0.0 | 0.00 | 0.00 | 0.00 | 94 | 1018.2 |
| 20260906095458 | 66 | 41 | 0.0 | 0.0 | 0.00 | 0.00 | 0.00 | 94 | 1018.2 |
| 20260906094958 | 66 | 41 | 0.0 | 0.0 | 0.00 | 0.00 | 0.00 | 94 | 1018.2 |
| 20260906094458 | 66 | 41 | 0.0 | 0.0 | 0.00 | 0.00 | 0.00 | 94 | 1018.2 |
| 20260906093959 | 66 | 41 | 0.0 | 0.0 | 0.00 | 0.00 | 0.00 | 94 | 1018.2 |
| 20260906092958 | 66 | 42 | 0.0 | 0.0 | 0.00 | 0.00 | 0.00 | 94 | 1018.1 |
| 20260906092458 | 66 | 41 | 0.0 | 0.0 | 0.00 | 0.00 | 0.00 | 94 | 1018.1 |
| 20260906091959 | 66 | 41 | 0.0 | 0.0 | 0.00 | 0.00 | 0.00 | 93 | 1018.0 |
| 20260906091458 | 66 | 42 | 0.0 | 0.0 | 0.00 | 0.00 | 0.00 | 93 | 1018.0 |
| 20260906090959 | 66 | 41 | 0.0 | 0.0 | 0.00 | 0.00 | 0.00 | 93 | 1018.0 |
| 20260906090458 | 66 | 41 | 0.0 | 0.0 | 0.00 | 0.00 | 0.00 | 93 | 1018.1 |
| 20260906090002 | 66 | 41 | 0.0 | 0.0 | 0.00 | 0.00 | 0.00 | 93 | 1018.1 |
| 20260906085458 | 66 | 41 | 0.0 | 0.0 | 0.00 | 0.00 | 0.00 | 93 | 1018.1 |
| 20260906084958 | 66 | 41 | 0.0 | 0.0 | 0.00 | 0.00 | 0.00 | 93 | 1018.0 |
| 20260906083458 | 66 | 41 | 0.0 | 0.0 | 0.00 | 0.00 | 0.00 | 93 | 1018.0 |
| 20260906082958 | 66 | 42 | 0.0 | 0.0 | 0.00 | 0.00 | 0.00 | 93 | 1018.0 |
| 20260906082458 | 66 | 42 | 0.0 | 0.0 | 0.00 | 0.00 | 0.00 | 93 | 1018.0 |
| 20260906081959 | 66 | 42 | 0.0 | 0.0 | 0.00 | 0.00 | 0.00 | 93 | 1018.0 |
| 20260906081457 | 66 | 42 | 0.0 | 0.0 | 0.00 | 0.00 | 0.00 | 93 | 1018.1 |
| 20260906080958 | 66 | 42 | 0.0 | 0.0 | 0.00 | 0.00 | 0.00 | 92 | 1018.1 |
| 20260906080458 | 66 | 42 | 0.0 | 0.0 | 0.00 | 0.00 | 0.00 | 92 | 1018.1 |
| 20260906080000 | 67 | 42 | 0.0 | 0.0 | 0.00 | 0.00 | 0.00 | 92 | 1018.0 |
| 20260906075457 | 67 | 42 | 0.0 | 0.0 | 0.00 | 0.00 | 0.00 | 92 | 1017.9 |
| 20260906074957 | 67 | 42 | 0.0 | 0.0 | 0.00 | 0.00 | 0.00 | 92 | 1017.9 |
| 20260906074457 | 67 | 42 | 0.0 | 0.0 | 0.00 | 0.00 | 0.00 | 92 | 1018.0 |
| 20260906073958 | 67 | 42 | 0.0 | 0.0 | 0.00 | 0.00 | 0.00 | 92 | 1018.1 |
| 20260906073457 | 67 | 42 | 0.0 | 0.0 | 0.00 | 0.00 | 0.00 | 92 | 1018.1 |
| 20260906072957 | 67 | 42 | 0.0 | 0.0 | 0.00 | 0.00 | 0.00 | 92 | 1018.1 |
| 20260906071959 | 67 | 42 | 0.0 | 0.0 | 0.00 | 0.00 | 0.00 | 92 | 1018.0 |
| 20260906071458 | 67 | 42 | 0.0 | 0.0 | 0.00 | 0.00 | 0.00 | 92 | 1018.0 |
| 20260906070958 | 68 | 42 | 0.0 | 0.0 | 0.00 | 0.00 | 0.00 | 92 | 1018.0 |
| 20260906070458 | 68 | 42 | 0.0 | 0.0 | 0.00 | 0.00 | 0.00 | 91 | 1018.0 |
| 20260906070001 | 68 | 42 | 0.0 | 0.0 | 0.00 | 0.00 | 0.00 | 91 | 1018.0 |
| 20260906065458 | 68 | 42 | 0.0 | 0.0 | 0.00 | 0.00 | 0.00 | 91 | 1018.1 |
| 20260906064958 | 68 | 42 | 0.0 | 0.0 | 0.00 | 0.00 | 0.00 | 91 | 1018.1 |
| 20260906064458 | 68 | 42 | 0.0 | 0.0 | 0.00 | 0.00 | 0.00 | 91 | 1018.1 |
| 20260906063958 | 68 | 42 | 0.0 | 0.0 | 0.00 | 0.00 | 0.00 | 91 | 1018.1 |
| 20260906062958 | 69 | 45 | 0.0 | 0.0 | 0.00 | 0.00 | 0.00 | 91 | 1018.2 |
| 20260906062458 | 69 | 45 | 0.0 | 0.0 | 0.00 | 0.00 | 0.00 | 91 | 1018.2 |
| 20260906061958 | 69 | 48 | 0.0 | 0.0 | 0.00 | 0.00 | 0.00 | 91 | 1018.2 |
| 20260906061459 | 69 | 48 | 0.0 | 0.0 | 0.00 | 0.00 | 0.00 | 91 | 1018.2 |
| 20260906060958 | 69 | 48 | 0.0 | 0.0 | 0.00 | 0.00 | 0.00 | 91 | 1018.1 |
| 20260906060458 | 69 | 48 | 0.0 | 0.0 | 0.00 | 0.00 | 0.00 | 91 | 1018.1 |
| 20260906055959 | 69 | 48 | 0.0 | 0.0 | 0.00 | 0.00 | 0.00 | 91 | 1018.1 |
| 20260906054956 | 69 | 48 | 0.0 | 0.0 | 0.00 | 0.00 | 0.00 | 91 | 1018.3 |
| 20260906054458 | 69 | 47 | 0.0 | 0.0 | 0.00 | 0.00 | 0.00 | 91 | 1018.3 |
| 20260906053000 | 69 | 39 | 0.0 | 0.0 | 0.00 | 0.00 | 0.00 | 91 | 1018.2 |
| 20260906052459 | 69 | 39 | 0.0 | 2.0 | 0.00 | 0.00 | 0.00 | 91 | 1018.2 |
| 20260906052001 | 69 | 9 | 0.0 | 2.0 | 0.00 | 0.00 | 0.00 | 91 | 1018.1 |
| 20260906051500 | 69 | 63 | 0.0 | 1.0 | 0.00 | 0.00 | 0.00 | 91 | 1018.1 |
| 20260906051000 | 69 | 53 | 0.0 | 1.0 | 0.00 | 0.00 | 0.00 | 91 | 1018.0 |
| 20260906050500 | 69 | 63 | 0.0 | 1.0 | 0.00 | 0.00 | 0.00 | 91 | 1018.0 |
| 20260906045500 | 69 | 27 | 0.0 | 1.0 | 0.00 | 0.00 | 0.00 | 91 | 1017.9 |
| 20260906045000 | 69 | 31 | 0.0 | 1.0 | 0.00 | 0.00 | 0.00 | 91 | 1017.8 |
| 20260906044503 | 69 | 30 | 0.0 | 0.0 | 0.00 | 0.00 | 0.00 | 91 | 1017.9 |
| 20260906044001 | 69 | 30 | 0.0 | 1.0 | 0.00 | 0.00 | 0.00 | 91 | 1017.9 |
| 20260906043500 | 69 | 30 | 0.0 | 1.0 | 0.00 | 0.00 | 0.00 | 91 | 1017.8 |
| 20260906043000 | 69 | 30 | 0.0 | 1.0 | 0.00 | 0.00 | 0.00 | 90 | 1017.8 |
| 20260906042001 | 69 | 56 | 0.0 | 0.0 | 0.00 | 0.00 | 0.00 | 90 | 1017.7 |
| 20260906041000 | 69 | 58 | 0.0 | 1.0 | 0.00 | 0.00 | 0.00 | 90 | 1017.5 |
| 20260906040500 | 69 | 58 | 0.0 | 2.0 | 0.00 | 0.00 | 0.00 | 90 | 1017.5 |
| 20260906040004 | 69 | 59 | 0.0 | 2.0 | 0.00 | 0.00 | 0.00 | 90 | 1017.4 |
| 20260906035500 | 69 | 68 | 1.0 | 3.0 | 0.00 | 0.00 | 0.00 | 90 | 1017.3 |
| 20260906035000 | 69 | 67 | 0.0 | 3.0 | 0.00 | 0.00 | 0.00 | 90 | 1017.3 |
| 20260906034502 | 69 | 77 | 0.0 | 2.0 | 0.00 | 0.00 | 0.00 | 90 | 1017.3 |
| 20260906033500 | 69 | 69 | 0.0 | 0.0 | 0.00 | 0.00 | 0.00 | 90 | 1017.1 |
| 20260906032501 | 70 | 69 | 0.0 | 1.0 | 0.00 | 0.00 | 0.00 | 89 | 1017.0 |
| 20260906032000 | 70 | 69 | 0.0 | 2.0 | 0.00 | 0.00 | 0.00 | 89 | 1016.9 |
| 20260906031500 | 70 | 69 | 0.0 | 2.0 | 0.00 | 0.00 | 0.00 | 89 | 1016.8 |
| 20260906031000 | 70 | 70 | 0.0 | 2.0 | 0.00 | 0.00 | 0.00 | 89 | 1016.9 |
| 20260906025500 | 70 | 70 | 0.0 | 2.0 | 0.00 | 0.04 | 0.00 | 88 | 1016.9 |
| 20260906024501 | 71 | 62 | 0.0 | 2.0 | 0.00 | 0.04 | 0.00 | 88 | 1016.9 |
| 20260906024000 | 71 | 69 | 0.0 | 2.0 | 0.00 | 0.04 | 0.00 | 88 | 1016.8 |
| 20260906023500 | 71 | 75 | 0.0 | 1.0 | 0.00 | 0.04 | 0.00 | 88 | 1016.8 |
| 20260906023000 | 71 | 41 | 0.0 | 1.0 | 0.00 | 0.04 | 0.00 | 88 | 1016.8 |
| 20260906022500 | 71 | 56 | 0.0 | 1.0 | 0.00 | 0.04 | 0.00 | 88 | 1016.7 |
| 20260906022000 | 71 | 26 | 0.0 | 1.0 | 0.00 | 0.04 | 0.00 | 88 | 1016.7 |
| 20260906021000 | 71 | 68 | 0.0 | 2.0 | 0.00 | 0.04 | 0.00 | 88 | 1016.9 |
| 20260906020500 | 71 | 70 | 0.0 | 2.0 | 0.00 | 0.04 | 0.00 | 88 | 1016.8 |
| 20260906020002 | 71 | 81 | 0.0 | 2.0 | 0.00 | 0.04 | 0.00 | 88 | 1016.8 |
| 20260906015500 | 71 | 70 | 0.0 | 3.0 | 0.00 | 0.04 | 0.00 | 88 | 1016.8 |
| 20260906015000 | 71 | 69 | 1.0 | 3.0 | 0.00 | 0.04 | 0.00 | 88 | 1016.9 |
| 20260906014501 | 71 | 75 | 1.0 | 2.0 | 0.00 | 0.04 | 0.00 | 88 | 1017.0 |
| 20260906014000 | 71 | 66 | 0.0 | 2.0 | 0.00 | 0.04 | 0.00 | 87 | 1017.0 |
| 20260906013500 | 71 | 74 | 0.0 | 2.0 | 0.00 | 0.04 | 0.00 | 88 | 1017.0 |
| 20260906013000 | 71 | 49 | 0.0 | 1.0 | 0.00 | 0.04 | 0.00 | 87 | 1016.9 |
| 20260906012501 | 71 | 45 | 0.0 | 2.0 | 0.00 | 0.04 | 0.00 | 87 | 1016.9 |
| 20260906012000 | 71 | 46 | 0.0 | 2.0 | 0.00 | 0.04 | 0.00 | 87 | 1016.9 |
| 20260906011500 | 71 | 64 | 0.0 | 2.0 | 0.00 | 0.04 | 0.00 | 87 | 1016.9 |
| 20260906011000 | 72 | 58 | 0.0 | 2.0 | 0.00 | 0.04 | 0.00 | 87 | 1016.9 |
| 20260906010501 | 72 | 65 | 0.0 | 2.0 | 0.00 | 0.04 | 0.00 | 87 | 1016.9 |
| 20260906010003 | 72 | 30 | 0.0 | 2.0 | 0.00 | 0.04 | 0.00 | 87 | 1017.0 |
| 20260906005500 | 72 | 40 | 0.0 | 2.0 | 0.00 | 0.04 | 0.00 | 87 | 1017.0 |
| 20260906005000 | 72 | 69 | 1.0 | 2.0 | 0.00 | 0.04 | 0.00 | 87 | 1016.8 |
| 20260906004500 | 72 | 69 | 1.0 | 3.0 | 0.00 | 0.04 | 0.00 | 86 | 1016.7 |
| 20260906004000 | 72 | 70 | 0.0 | 2.0 | 0.00 | 0.04 | 0.00 | 87 | 1016.7 |
| 20260906003459 | 72 | 76 | 0.0 | 2.0 | 0.00 | 0.04 | 0.00 | 87 | 1016.6 |
| 20260906003001 | 72 | 82 | 0.0 | 2.0 | 0.00 | 0.04 | 0.00 | 87 | 1016.6 |
| 20260906002500 | 72 | 65 | 0.0 | 2.0 | 0.00 | 0.04 | 0.00 | 86 | 1016.6 |
| 20260906001959 | 72 | 74 | 0.0 | 2.0 | 0.00 | 0.04 | 0.00 | 86 | 1016.6 |
| 20260906001500 | 73 | 38 | 0.0 | 3.0 | 0.00 | 0.04 | 0.00 | 86 | 1016.6 |
| 20260906001001 | 73 | 71 | 0.0 | 3.0 | 0.00 | 0.04 | 0.00 | 86 | 1016.6 |
| 20260906000500 | 73 | 52 | 0.0 | 2.0 | 0.00 | 0.04 | 0.00 | 86 | 1016.5 |
| 20260906000001 | 73 | 35 | 0.0 | 2.0 | 0.00 | 0.04 | 0.00 | 85 | 1016.5 |
| 20260905235459 | 73 | 60 | 0.0 | 2.0 | 0.00 | 0.04 | 0.00 | 85 | 1016.4 |
| 20260905234959 | 74 | 49 | 1.0 | 2.0 | 0.00 | 0.04 | 0.00 | 85 | 1016.3 |
| 20260905234459 | 74 | 34 | 0.0 | 2.0 | 0.00 | 0.04 | 0.00 | 84 | 1016.3 |
| 20260905233959 | 74 | 70 | 0.0 | 2.0 | 0.00 | 0.04 | 0.00 | 84 | 1016.2 |
| 20260905233500 | 75 | 71 | 0.0 | 2.0 | 0.00 | 0.04 | 0.00 | 83 | 1016.2 |
| 20260905232959 | 75 | 27 | 1.0 | 2.0 | 0.00 | 0.04 | 0.00 | 83 | 1016.2 |
| 20260905232459 | 75 | 12 | 1.0 | 3.0 | 0.00 | 0.04 | 0.00 | 82 | 1016.2 |
| 20260905232000 | 76 | 44 | 1.0 | 3.0 | 0.00 | 0.04 | 0.00 | 82 | 1016.1 |
| 20260905231459 | 76 | 66 | 1.0 | 4.0 | 0.00 | 0.04 | 0.00 | 82 | 1016.2 |
| 20260905230959 | 76 | 78 | 0.0 | 4.0 | 0.00 | 0.04 | 0.00 | 81 | 1016.1 |
| 20260905230459 | 76 | 21 | 0.0 | 2.0 | 0.00 | 0.04 | 0.00 | 81 | 1016.0 |
| 20260905225459 | 77 | 32 | 1.0 | 3.0 | 0.00 | 0.04 | 0.00 | 81 | 1015.8 |
| 20260905224959 | 77 | 64 | 1.0 | 0.0 | 0.00 | 0.04 | 0.00 | 1015.7 | |
| 20260905224459 | 0 | 0.0 | 0.0 | 0.00 | 0.04 | 0.00 | 1015.7 | ||
| 20260905223959 | 0 | 0.0 | 0.0 | 0.00 | 0.04 | 0.00 | 1015.7 | ||
| 20260905222958 | 78 | 27 | 1.0 | 2.0 | 0.00 | 0.04 | 0.00 | 80 | 1015.6 |
| 20260905222458 | 78 | 27 | 0.0 | 2.0 | 0.00 | 0.04 | 0.00 | 80 | 1015.6 |
| 20260905221958 | 78 | 45 | 1.0 | 2.0 | 0.00 | 0.04 | 0.00 | 80 | 1015.6 |
| 20260905220958 | 79 | 79 | 1.0 | 3.0 | 0.00 | 0.04 | 0.00 | 80 | 1015.5 |
| 20260905220458 | 80 | 66 | 1.0 | 3.0 | 0.00 | 0.04 | 0.00 | 78 | 1015.5 |
| 20260905220001 | 80 | 67 | 1.0 | 3.0 | 0.00 | 0.04 | 0.00 | 78 | 1015.5 |
| 20260905215459 | 80 | 39 | 0.0 | 2.0 | 0.00 | 0.04 | 0.00 | 79 | 1015.5 |
| 20260905214959 | 80 | 21 | 0.0 | 1.0 | 0.00 | 0.04 | 0.00 | 78 | 1015.5 |
| 20260905214500 | 80 | 20 | 0.0 | 1.0 | 0.00 | 0.04 | 0.00 | 77 | 1015.5 |
| 20260905213459 | 81 | 68 | 0.0 | 1.0 | 0.00 | 0.04 | 0.00 | 76 | 1015.3 |
| 20260905212959 | 81 | 68 | 0.0 | 1.0 | 0.00 | 0.04 | 0.00 | 75 | 1015.3 |
| 20260905212459 | 81 | 34 | 0.0 | 1.0 | 0.00 | 0.04 | 0.00 | 76 | 1015.3 |
| 20260905212000 | 81 | 360 | 0.0 | 2.0 | 0.00 | 0.04 | 0.00 | 76 | 1015.3 |
| 20260905210459 | 80 | 346 | 0.0 | 1.0 | 0.00 | 0.04 | 0.00 | 77 | 1015.3 |
| 20260905210003 | 80 | 18 | 0.0 | 1.0 | 0.00 | 0.04 | 0.00 | 78 | 1015.3 |
| 20260905205459 | 80 | 353 | 0.0 | 2.0 | 0.00 | 0.04 | 0.00 | 78 | 1015.2 |
| 20260905204959 | 80 | 5 | 0.0 | 2.0 | 0.00 | 0.04 | 0.00 | 78 | 1015.2 |
| 20260905204459 | 80 | 63 | 0.0 | 1.0 | 0.00 | 0.04 | 0.00 | 79 | 1015.3 |
| 20260905204000 | 80 | 342 | 0.0 | 1.0 | 0.00 | 0.04 | 0.00 | 79 | 1015.4 |
| 20260905203459 | 80 | 342 | 0.0 | 1.0 | 0.00 | 0.04 | 0.00 | 79 | 1015.5 |
| 20260905202959 | 79 | 340 | 0.0 | 1.0 | 0.00 | 0.04 | 0.00 | 80 | 1015.5 |
| 20260905202459 | 79 | 44 | 0.0 | 1.0 | 0.00 | 0.04 | 0.00 | 81 | 1015.5 |
| 20260905202000 | 79 | 39 | 0.0 | 1.0 | 0.00 | 0.04 | 0.00 | 81 | 1015.5 |
| 20260905201459 | 79 | 40 | 1.0 | 2.0 | 0.00 | 0.04 | 0.00 | 81 | 1015.5 |
| 20260905200959 | 79 | 5 | 1.0 | 2.0 | 0.00 | 0.04 | 0.00 | 81 | 1015.4 |
| 20260905200459 | 79 | 16 | 0.0 | 2.0 | 0.00 | 0.04 | 0.00 | 83 | 1015.5 |
| 20260905200003 | 78 | 324 | 0.0 | 2.0 | 0.00 | 0.04 | 0.00 | 83 | 1015.4 |
| 20260905195458 | 78 | 65 | 0.0 | 1.0 | 0.00 | 0.04 | 0.00 | 84 | 1015.5 |
| 20260905194458 | 77 | 65 | 0.0 | 2.0 | 0.00 | 0.04 | 0.00 | 84 | 1015.6 |
| 20260905193959 | 77 | 65 | 0.0 | 2.0 | 0.00 | 0.04 | 0.00 | 85 | 1015.7 |
| 20260905193458 | 77 | 359 | 0.0 | 1.0 | 0.00 | 0.04 | 0.00 | 85 | 1015.8 |
| 20260905192458 | 76 | 359 | 0.0 | 1.0 | 0.00 | 0.04 | 0.00 | 86 | 1015.9 |
| 20260905191959 | 76 | 358 | 0.0 | 1.0 | 0.00 | 0.04 | 0.00 | 86 | 1015.9 |
| 20260905191458 | 76 | 350 | 0.0 | 1.0 | 0.00 | 0.04 | 0.00 | 86 | 1015.9 |
| 20260905190458 | 76 | 51 | 0.0 | 1.0 | 0.00 | 0.04 | 0.00 | 86 | 1016.1 |
| 20260905190004 | 76 | 51 | 0.0 | 1.0 | 0.00 | 0.04 | 0.00 | 86 | 1015.9 |
| 20260905185459 | 76 | 52 | 0.0 | 1.0 | 0.00 | 0.04 | 0.00 | 87 | 1016.1 |
| 20260905185000 | 76 | 8 | 0.0 | 1.0 | 0.00 | 0.04 | 0.00 | 88 | 1016.1 |
| 20260905184459 | 75 | 7 | 0.0 | 1.0 | 0.00 | 0.04 | 0.00 | 88 | 1016.2 |
| 20260905183000 | 75 | 6 | 0.0 | 1.0 | 0.00 | 0.04 | 0.00 | 87 | 1016.2 |
| 20260905182459 | 75 | 57 | 0.0 | 1.0 | 0.00 | 0.04 | 0.00 | 88 | 1016.2 |
| 20260905181459 | 75 | 11 | 0.0 | 1.0 | 0.00 | 0.04 | 0.00 | 88 | 1016.3 |
| 20260905181000 | 75 | 13 | 0.0 | 1.0 | 0.00 | 0.04 | 0.00 | 88 | 1016.2 |
| 20260905180459 | 75 | 63 | 0.0 | 1.0 | 0.00 | 0.04 | 0.00 | 88 | 1016.2 |
| 20260905175459 | 75 | 34 | 0.0 | 1.0 | 0.00 | 0.04 | 0.00 | 88 | 1016.2 |
| 20260905174959 | 75 | 360 | 0.0 | 2.0 | 0.00 | 0.04 | 0.00 | 88 | 1016.1 |
| 20260905174459 | 75 | 352 | 0.0 | 2.0 | 0.00 | 0.04 | 0.00 | 88 | 1016.1 |
| 20260905173959 | 75 | 15 | 0.0 | 1.0 | 0.00 | 0.04 | 0.00 | 88 | 1016.1 |
| 20260905173459 | 75 | 23 | 0.0 | 1.0 | 0.00 | 0.04 | 0.00 | 88 | 1016.2 |
| 20260905172959 | 75 | 41 | 0.0 | 1.0 | 0.00 | 0.04 | 0.00 | 88 | 1016.1 |
| 20260905172459 | 75 | 40 | 0.0 | 1.0 | 0.00 | 0.04 | 0.00 | 88 | 1016.1 |
| 20260905171459 | 75 | 46 | 0.0 | 1.0 | 0.00 | 0.04 | 0.00 | 87 | 1016.1 |
| 20260905170959 | 75 | 63 | 0.0 | 1.0 | 0.00 | 0.04 | 0.00 | 87 | 1016.1 |
| 20260905170458 | 76 | 25 | 0.0 | 2.0 | 0.00 | 0.04 | 0.00 | 88 | 1016.1 |
| 20260905170002 | 76 | 7 | 0.0 | 2.0 | 0.00 | 0.04 | 0.00 | 87 | 1016.1 |
| 20260905165459 | 76 | 21 | 0.0 | 2.0 | 0.00 | 0.04 | 0.00 | 87 | 1016.2 |
| 20260905164959 | 76 | 22 | 0.0 | 2.0 | 0.00 | 0.04 | 0.00 | 87 | 1016.2 |
| 20260905164459 | 76 | 11 | 0.0 | 2.0 | 0.00 | 0.04 | 0.00 | 87 | 1016.3 |
| 20260905163959 | 76 | 25 | 0.0 | 2.0 | 0.00 | 0.04 | 0.00 | 88 | 1016.2 |
| 20260905163459 | 76 | 347 | 0.0 | 2.0 | 0.00 | 0.04 | 0.00 | 88 | 1016.2 |
| 20260905162959 | 76 | 21 | 0.0 | 2.0 | 0.00 | 0.04 | 0.00 | 88 | 1016.1 |
| 20260905162459 | 76 | 54 | 0.0 | 1.0 | 0.00 | 0.04 | 0.00 | 88 | 1016.2 |
| 20260905161959 | 76 | 59 | 0.0 | 1.0 | 0.00 | 0.04 | 0.00 | 89 | 1016.1 |
| 20260905161459 | 76 | 59 | 0.0 | 2.0 | 0.00 | 0.04 | 0.00 | 89 | 1016.1 |
| 20260905160959 | 76 | 351 | 0.0 | 2.0 | 0.00 | 0.04 | 0.00 | 88 | 1016.1 |
| 20260905160003 | 76 | 20 | 0.0 | 1.0 | 0.00 | 0.04 | 0.00 | 89 | 1016.1 |
| 20260905155457 | 76 | 72 | 0.0 | 1.0 | 0.00 | 0.04 | 0.00 | 90 | 1016.1 |
| 20260905154957 | 75 | 63 | 0.0 | 1.0 | 0.00 | 0.04 | 0.00 | 90 | 1016.1 |
| 20260905154458 | 75 | 27 | 0.0 | 2.0 | 0.00 | 0.04 | 0.00 | 90 | 1015.9 |
| 20260905153958 | 75 | 3 | 0.0 | 2.0 | 0.00 | 0.04 | 0.00 | 91 | 1015.9 |
| 20260905153457 | 75 | 1 | 0.0 | 1.0 | 0.00 | 0.04 | 0.00 | 92 | 1015.9 |
| 20260905152959 | 75 | 359 | 0.0 | 2.0 | 0.00 | 0.04 | 0.00 | 93 | 1015.7 |
| 20260905152457 | 74 | 75 | 1.0 | 2.0 | 0.00 | 0.04 | 0.00 | 93 | 1015.6 |
| 20260905151958 | 74 | 88 | 0.0 | 2.0 | 0.00 | 0.04 | 0.00 | 94 | 1015.7 |
| 20260905151457 | 73 | 74 | 0.0 | 2.0 | 0.00 | 0.04 | 0.00 | 94 | 1015.6 |
| 20260905150957 | 73 | 20 | 0.0 | 1.0 | 0.00 | 0.04 | 0.00 | 95 | 1015.6 |
| 20260905150457 | 73 | 69 | 0.0 | 2.0 | 0.00 | 0.04 | 0.00 | 95 | 1015.5 |
| 20260905150000 | 73 | 69 | 0.0 | 2.0 | 0.00 | 0.04 | 0.00 | 95 | 1015.5 |
| 20260905145458 | 73 | 53 | 0.0 | 1.0 | 0.00 | 0.04 | 0.00 | 95 | 1015.5 |
| 20260905144958 | 73 | 58 | 0.0 | 1.0 | 0.00 | 0.04 | 0.00 | 95 | 1015.5 |
| 20260905144458 | 72 | 70 | 0.0 | 1.0 | 0.00 | 0.04 | 0.00 | 95 | 1015.5 |
| 20260905143958 | 72 | 70 | 0.0 | 1.0 | 0.00 | 0.04 | 0.00 | 95 | 1015.6 |
| 20260905143458 | 72 | 57 | 0.0 | 1.0 | 0.00 | 0.04 | 0.00 | 95 | 1015.6 |
| 20260905142958 | 72 | 5 | 0.0 | 1.0 | 0.00 | 0.04 | 0.00 | 95 | 1015.4 |
| 20260905142458 | 72 | 351 | 0.0 | 1.0 | 0.00 | 0.04 | 0.00 | 95 | 1015.4 |
| 20260905141459 | 72 | 358 | 0.0 | 1.0 | 0.00 | 0.04 | 0.00 | 95 | 1015.5 |
| 20260905140958 | 72 | 359 | 0.0 | 1.0 | 0.00 | 0.04 | 0.00 | 95 | 1015.6 |
| 20260905140458 | 72 | 359 | 0.0 | 1.0 | 0.00 | 0.04 | 0.00 | 96 | 1015.5 |
| 20260905140003 | 72 | 359 | 0.0 | 1.0 | 0.00 | 0.04 | 0.00 | 95 | 1015.5 |
| 20260905135458 | 72 | 13 | 0.0 | 1.0 | 0.00 | 0.04 | 0.00 | 95 | 1015.3 |
| 20260905134958 | 72 | 8 | 0.0 | 1.0 | 0.00 | 0.04 | 0.00 | 95 | 1015.4 |
| 20260905134458 | 72 | 8 | 0.0 | 1.0 | 0.00 | 0.04 | 0.00 | 95 | 1015.2 |
| 20260905133959 | 72 | 72 | 0.0 | 1.0 | 0.00 | 0.04 | 0.00 | 95 | 1015.3 |
| 20260905132958 | 71 | 77 | 0.0 | 2.0 | 0.00 | 0.04 | 0.00 | 95 | 1015.2 |
| 20260905132458 | 71 | 68 | 0.0 | 1.0 | 0.00 | 0.04 | 0.00 | 95 | 1015.3 |
| 20260905131959 | 71 | 19 | 0.0 | 1.0 | 0.00 | 0.04 | 0.00 | 95 | 1015.4 |
| 20260905131458 | 71 | 19 | 0.0 | 1.0 | 0.00 | 0.04 | 0.00 | 95 | 1015.5 |
| 20260905130958 | 71 | 10 | 0.0 | 1.0 | 0.00 | 0.04 | 0.00 | 95 | 1015.6 |
| 20260905130458 | 71 | 9 | 0.0 | 1.0 | 0.00 | 0.04 | 0.00 | 95 | 1015.6 |
| 20260905125459 | 71 | 68 | 0.0 | 2.0 | 0.00 | 0.04 | 0.00 | 95 | 1015.1 |
| 20260905124958 | 71 | 68 | 0.0 | 2.0 | 0.00 | 0.04 | 0.00 | 95 | 1015.0 |
| 20260905123959 | 71 | 354 | 0.0 | 2.0 | 0.00 | 0.04 | 0.00 | 95 | 1014.9 |
| 20260905123458 | 71 | 71 | 0.0 | 1.0 | 0.00 | 0.04 | 0.00 | 95 | 1014.8 |
| 20260905122958 | 71 | 71 | 0.0 | 2.0 | 0.00 | 0.04 | 0.00 | 95 | 1014.5 |
| 20260905122458 | 71 | 72 | 0.0 | 2.0 | 0.00 | 0.04 | 0.00 | 95 | 1014.4 |
| 20260905121959 | 71 | 71 | 0.0 | 2.0 | 0.00 | 0.04 | 0.00 | 95 | 1014.3 |
| 20260905121458 | 71 | 75 | 0.0 | 2.0 | 0.00 | 0.04 | 0.00 | 95 | 1014.2 |
| 20260905120458 | 71 | 64 | 0.0 | 1.0 | 0.00 | 0.04 | 0.00 | 95 | 1014.2 |
| 20260905120000 | 72 | 64 | 0.0 | 1.0 | 0.00 | 0.04 | 0.00 | 95 | 1014.1 |
| 20260905115458 | 72 | 64 | 0.0 | 1.0 | 0.00 | 0.04 | 0.00 | 95 | 1014.1 |
| 20260905114958 | 72 | 64 | 0.0 | 1.0 | 0.00 | 0.04 | 0.00 | 95 | 1014.0 |
| 20260905113958 | 72 | 338 | 0.0 | 0.0 | 0.00 | 0.04 | 0.00 | 95 | 1013.9 |
| 20260905113458 | 72 | 338 | 0.0 | 0.0 | 0.00 | 0.04 | 0.00 | 95 | 1013.8 |
| 20260905112958 | 72 | 322 | 0.0 | 0.0 | 0.00 | 0.04 | 0.00 | 95 | 1013.7 |
| 20260905112458 | 72 | 322 | 0.0 | 0.0 | 0.00 | 0.04 | 0.00 | 95 | 1013.6 |
| 20260905111958 | 72 | 322 | 0.0 | 0.0 | 0.00 | 0.04 | 0.00 | 95 | 1013.5 |